MPEC 2006-M14 : 2006 LX4

The following Minor Planet Electronic Circular may be linked-to from your own Web pages, but must not otherwise be redistributed electronically.


Read MPEC 2006-M13 Read MPEC 2006-M15


M.P.E.C. 2006-M14                                Issued 2006 June 20, 16:31 UT

     The Minor Planet Electronic Circulars contain information on unusual
         minor planets and routine data on comets.  They are published
   on behalf of Commission 20 of the International Astronomical Union by the
          Minor Planet Center, Smithsonian Astrophysical Observatory,
                          Cambridge, MA 02138, U.S.A.

                  Supported in part by the Brinson Foundation
                  Supported in part by the TABASGO Foundation
             Prepared using the Tamkin Foundation Computer Network

                              MPC@CFA.HARVARD.EDU
          URL http://cfa-www.harvard.edu/iau/mpc.html  ISSN 1523-6714

                                   2006 LX4

Observations:
     K06L04X* C2006 06 11.40225 20 35 33.94 -15 24 05.7          18.6 R EM014644
     K06L04X  C2006 06 11.40469 20 35 34.02 -15 24 01.3          18.8 R EM014644
     K06L04X  C2006 06 11.42507 20 35 34.58 -15 23 25.0          18.7 R EM014644
     K06L04X  C2006 06 11.42626 20 35 34.59 -15 23 22.8          18.8 R EM014644
     K06L04X  C2006 06 11.44552 20 35 35.15 -15 22 48.2          19.5 R EM014644
     K06L04X  C2006 06 11.44672 20 35 35.20 -15 22 46.6          19.4 R EM014644
     K06L04X  C2006 06 19.34363 20 38 35.84 -11 11 28.6          18.4 V EM014703
     K06L04X  C2006 06 19.35124 20 38 36.02 -11 11 14.4          18.3 V EM014703
     K06L04X  C2006 06 19.35884 20 38 36.02 -11 10 59.1          18.9 V EM014703
     K06L04X  C2006 06 19.36650 20 38 36.16 -11 10 44.1          18.9 V EM014703
     K06L04X  C2006 06 19.37655 20 38 36.15 -11 10 22.4                 EM014703
     K06L04X  C2006 06 19.38574 20 38 36.32 -11 10 04.3          19.0 V EM014703
     K06L04X  C2006 06 19.39494 20 38 36.39 -11 09 46.1          18.9 V EM014703
     K06L04X  C2006 06 19.40409 20 38 36.32 -11 09 27.9                 EM014703
     K06L04X  C2006 06 19.45295 20 38 36.88 -11 07 48.3          18.2 V EM014703
     K06L04X  C2006 06 19.45420 20 38 36.92 -11 07 45.5          18.2 V EM014703
     K06L04X  C2006 06 19.45569 20 38 36.92 -11 07 42.2          18.1 V EM014703
     K06L04X  C2006 06 19.45791 20 38 36.96 -11 07 37.8          18.2 V EM014703
     K06L04X IC2006 06 20.03031 20 38 44.57 -10 48 09.9                 EM014461
     K06L04X  C2006 06 20.03317 20 38 44.65 -10 48 03.7          18.5 R EM014461
     K06L04X  C2006 06 20.29834 20 38 48.04 -10 38 57.6          19.3 R EM014734
     K06L04X  C2006 06 20.29981 20 38 48.04 -10 38 54.7          19.9 R EM014734
     K06L04X  C2006 06 20.30127 20 38 48.03 -10 38 50.9          19.3 R EM014734
     K06L04X  C2006 06 20.30203 20 38 48.22 -10 38 47.3          18.8 R EM014854
     K06L04X  C2006 06 20.30420 20 38 48.04 -10 38 43.4          19.5 R EM014734
     K06L04X  C2006 06 20.30970 20 38 48.29 -10 38 31.6          18.8 R EM014854
     K06L04X  C2006 06 20.31737 20 38 48.34 -10 38 16.1          18.8 R EM014854
     K06L04X  C2006 06 20.32503 20 38 48.44 -10 38 00.2          18.8 R EM014854
     K06L04X 5C2006 06 20.34525 20 38 48.63 -10 37 19.2          18.3 R EM014673
     K06L04X 5C2006 06 20.35046 20 38 48.67 -10 37 08.6                 EM014673
     K06L04X  C2006 06 20.35186 20 38 48.64 -10 37 05.6          19.4 V EM014691
     K06L04X 5C2006 06 20.35775 20 38 48.73 -10 36 53.8                 EM014673
     K06L04X 5C2006 06 20.36100 20 38 48.77 -10 36 46.8                 EM014673
     K06L04X  C2006 06 20.36143 20 38 48.66 -10 36 45.7                 EM014703
     K06L04X  C2006 06 20.36296 20 38 48.69 -10 36 43.0          18.2 V EM014G96
     K06L04X  C2006 06 20.36587 20 38 48.73 -10 36 36.9          18.3 V EM014G96
     K06L04X  C2006 06 20.36830 20 38 48.72 -10 36 31.9          18.3 V EM014703
     K06L04X  C2006 06 20.36880 20 38 48.73 -10 36 31.0          18.2 V EM014G96
     K06L04X  C2006 06 20.36911 20 38 48.76 -10 36 29.5          18.8 V EM014691
     K06L04X  C2006 06 20.37174 20 38 48.76 -10 36 24.9          18.2 V EM014G96
     K06L04X  C2006 06 20.37521 20 38 48.74 -10 36 17.0          18.1 V EM014703
     K06L04X  C2006 06 20.38208 20 38 48.73 -10 36 04.1          18.0 V EM014703
     K06L04X  C2006 06 20.38644 20 38 48.89 -10 35 53.4          18.7 V EM014691

Observer details:
461 Szeged University, Piszkesteto Stn. (Konkoly).  Observer K. Sarneczky.
    0.60-m Schmidt + CCD.
644 Palomar Mountain/NEAT.  Observers M. Brown, R. Bambery, K. Lawrence,
    M. Hicks, E. Helin, R. Thicksten.  1.2-m Schmidt + CCD.
673 Table Mountain Observatory, Wrightwood.  Observer J. Young.  0.61-m f/16
    Cassegrain + CCD.
691 Steward Observatory, Kitt Peak.  Observer R. S. McMillan.  0.9-m f/3
    reflector + CCD.
703 Catalina Sky Survey.  Observer R. E. Hill.  Measurers E. C. Beshore,
    E. J. Christensen, G. J. Garradd, A. R. Gibbs, A. D. Grauer, R. E. Hill,
    R. A. Kowalski, S. M. Larson, R. H. McNaught.  0.68-m Schmidt + CCD.
734 Farpoint Observatory.  Observer G. Hug.  Measurer D. Tibbets.  0.7-m
    reflector + CCD.
854 Sabino Canyon Observatory, Tucson.  Observer J. E. McGaha.  0.36-m f/10.0
    Schmidt-Cassegrain + CCD.
G96 Mt. Lemmon Survey.  Observer R. A. Kowalski.  Measurers E. C. Beshore,
    E. J. Christensen, G. J. Garradd, A. R. Gibbs, A. D. Grauer, R. E. Hill,
    R. A. Kowalski, S. M. Larson, R. H. McNaught.  1.5-m reflector + CCD.

Orbital elements:
2006 LX4
Epoch 2006 Mar. 6.0 TT = JDT 2453800.5                  MPC
M 329.24136              (2000.0)            P               Q
n   0.17860492     Peri.   50.42035     +0.78741325     +0.49106358
a   3.1227731      Node   277.07789     -0.61447411     +0.67335077
e   0.5234363      Incl.   22.05334     +0.04900963     +0.55268010
P   5.52           H   17.3           G   0.15           U   7
Residuals in seconds of arc
060611 644  0.1-  0.1-    060619 703  0.0   0.2-    060620 691  0.2+  0.3-
060611 644  0.1+  0.0     060619 703  0.2-  0.0     060620 673  0.1+  0.3-
060611 644  0.0   0.0     060619 703  0.1+  0.1-    060620 673  0.3+  0.0
060611 644  0.3-  0.1+    060620 461  0.4-  0.5-    060620 703  0.4-  0.0
060611 644  0.1+  0.3+    060620 461  0.4+  0.1-    060620 G96  0.1-  0.4-
060611 644  0.3+  0.2-    060620 734  0.3+  0.9-    060620 G96  0.2+  0.3-
060619 703  0.4-  1.3+    060620 734  0.2+  1.0-    060620 703  0.2-  0.3-
060619 703  1.1+  0.1+    060620 734  0.2-  0.2-    060620 G96  0.1-  0.5-
060619 703  0.0   0.0     060620 854  0.0   0.5+    060620 691  0.1+  0.3+
060619 703  1.0+  0.5-    060620 734  0.4-  1.2+    060620 G96  0.0   0.4-
060619 703  0.6-  0.8+    060620 854  0.1+  0.5+    060620 703  0.7-  0.3+
060619 703  0.6+  0.2+    060620 854  0.1-  0.2+    060620 703  1.5-  0.9-
060619 703  0.4+  0.3-    060620 854  0.5+  0.4+    060620 691  0.2+  0.7+
060619 703  1.9-  0.7-    060620 673  0.0   0.0
060619 703  0.4-  0.5-    060620 673  0.0   0.1-

Ephemeris:
2006 LX4                 a,e,i = 3.12, 0.52, 22                  q = 1.4882
Date    TT    R. A. (2000) Decl.     Delta      r     Elong.  Phase     V
2006 06 14    20 36.81   -14 05.0    0.775    1.655   134.6    25.9    19.0
2006 06 24    20 39.24   -08 28.2    0.691    1.615   141.3    23.2    18.6
2006 07 04    20 37.76   -02 05.4    0.627    1.579   146.9    20.6    18.3
2006 07 14    20 32.65   +04 43.8    0.583    1.548   149.7    19.4    18.1
2006 07 24    20 24.76   +11 24.2    0.562    1.524   148.5    20.4    18.0
2006 08 03    20 15.74   +17 14.8    0.561    1.505   144.0    23.3    18.0
2006 08 13    20 07.76   +21 48.0    0.576    1.493   138.2    26.9    18.2
2006 08 23    20 02.72   +24 55.9    0.605    1.488   132.5    30.0    18.4
2006 09 02    20 02.03   +26 47.0    0.642    1.490   127.6    32.5    18.6
2006 09 12    20 06.27   +27 38.5    0.686    1.499   123.5    34.0    18.8
2006 09 22    20 15.28   +27 46.4    0.737    1.515   120.2    35.0    19.0
2006 10 02    20 28.65   +27 25.0    0.793    1.537   117.4    35.3    19.2
2006 10 12    20 45.66   +26 46.3    0.855    1.565   115.0    35.3    19.4
2006 10 22    21 05.51   +25 58.5    0.924    1.598   112.7    35.1    19.6
2006 11 01    21 27.52   +25 09.0    1.002    1.636   110.2    34.7    19.8
2006 11 11    21 50.95   +24 23.3    1.090    1.679   107.5    34.2    20.0
2006 11 21    22 15.22   +23 44.7    1.188    1.725   104.5    33.7    20.3
2006 12 01    22 39.87   +23 16.0    1.297    1.774   101.1    33.1    20.5
2006 12 11    23 04.52   +22 58.3    1.416    1.826    97.4    32.3    20.7
2006 12 21    23 28.94   +22 51.4    1.546    1.880    93.3    31.5    21.0
2006 12 31    23 52.99   +22 54.8    1.685    1.936    89.0    30.5    21.2
2007 01 10    00 16.56   +23 06.9    1.832    1.993    84.4    29.4    21.4
2007 01 20    00 39.64   +23 26.3    1.986    2.051    79.6    28.2    21.6
2007 01 30    01 02.24   +23 51.2    2.144    2.110    74.7    26.8    21.8
2007 02 09    01 24.37   +24 19.7    2.306    2.169    69.6    25.2    22.0

Kyle E. Smalley              (C) Copyright 2006 MPC           M.P.E.C. 2006-M14

Read MPEC 2006-M13 Read MPEC 2006-M15


Our Web policy. Index to the CBAT/MPC/ICQ pages.

MPC

Valid HTML 4.01!